This demonstration page uses our WeatherBlox Daily Observations layout. Learn more.

Left ArrowRight Arrow

Hourly Observations for January 22, 2017

Temp ( °F °C ) Dew Point ( °F °C ) Humidity (%) Winds ( mph kmh ) Pressure ( in mb ) Visibility ( mi km ) Precip ( " mm )
12:52 am 00:52 Cloudy 51 10.6 48 8.9 89 89 NNE 5 7 29.41 996 10 16 0.00 0.03
1:35 am 01:35 Cloudy 50 10 47 8.3 89 89 NNW 3 6 29.44 997 10 16 0.00 0.00
1:52 am 01:52 Cloudy 50 10 48 8.9 93 93 NNE 6 9 29.41 996 10 16 0.00 0.00
2:29 am 02:29 Cloudy 51 10.6 49 9.4 92 92 NNE 6 9 29.47 998 10 16 0.00 0.00
2:52 am 02:52 Cloudy 51 10.6 48 8.9 89 89 NNE 8 13 29.42 996 10 16 0.00 0.00
3:02 am 03:02 Cloudy 50 10 48 9 94 94 NNE 8 13 29.47 998 10 16 0.00 0.00
3:52 am 03:52 Cloudy 50 10 48 8.9 93 93 NNE 12 19 29.40 996 10 16 0.00 0.03
4:29 am 04:29 Cloudy 50 10 48 8.9 93 93 NE 14 22 29.44 997 10 16 0.00 0.00
4:43 am 04:43 Cloudy 50 10 48 9 94 94 NE 16 26 29.44 997 10 16 0.00 0.00
4:52 am 04:52 Cloudy 50 10 48 8.9 93 93 NE 15 24 29.40 996 10 16 0.00 0.00
5:40 am 05:40 Cloudy 50 10 48 9 94 94 NE 14 22 29.44 997 10 16 0.00 0.00
5:52 am 05:52 Cloudy with Light Rain 50 10 48 8.9 93 93 NE 15 24 29.40 996 8 13 0.00 0.03
6:52 am 06:52 Cloudy with Light Rain 50 10 48 8.9 93 93 ENE 13 20 29.41 996 7 11 0.17 4.32
7:36 am 07:36 Cloudy with Light Rain 49 9.4 47 8.3 93 93 NE 15 24 29.47 998 10 16 0.04 1.02
7:44 am 07:44 Cloudy 48 9 46 8 94 94 NE 14 22 29.47 998 10 16 0.00 0.00
7:52 am 07:52 Cloudy with Light Rain 49 9.4 47 8.3 93 93 NE 15 24 29.44 997 10 16 0.04 1.02
8:03 am 08:03 Cloudy with Light Rain 48 9 46 8 94 94 NE 13 20 29.47 998 10 16 0.00 0.00
8:23 am 08:23 Cloudy 49 9.4 47 8.3 93 93 NE 17 28 29.47 998 10 16 0.01 0.25
8:52 am 08:52 Cloudy 49 9.4 47 8.3 93 93 NE 20 31 29.45 997 10 16 0.01 0.25
9:45 am 09:45 Cloudy 49 9.4 46 7.8 90 90 NNE 18 30 29.50 999 10 16 0.00 0.03
9:52 am 09:52 Cloudy 49 9.4 46 7.8 90 90 NNE 16 26 29.48 998 10 16 0.00 0.03
10:30 am 10:30 Cloudy with Rain 48 9 46 8 94 94 NNE 14 22 29.53 1000 6 10 0.00 0.00
10:52 am 10:52 Cloudy with Light Rain 49 9.4 46 7.8 90 90 N 13 20 29.52 1000 8 13 0.02 0.51
11:52 am 11:52 Cloudy with Light Rain 48 8.9 46 7.8 93 93 N 18 30 29.52 1000 6 10 0.02 0.51
12:12 pm 12:12 Cloudy with Light Rain 48 9 45 7 87 87 N 21 33 29.56 1001 7 11 0.00 0.00
12:52 pm 12:52 Cloudy with Light Rain 46 7.8 43 6.1 89 89 N 20 31 29.53 1000 5 8 0.02 0.51
1:52 pm 13:52 Cloudy with Light Rain 46 7.8 43 6.1 89 89 N 17 28 29.56 1001 10 16 0.03 0.76
2:52 pm 14:52 Cloudy with Light Rain 45 7.2 43 6.1 93 93 N 20 31 29.58 1002 7 11 0.02 0.51
3:49 pm 15:49 Cloudy with Light Rain 45 7 41 5 87 87 N 18 30 29.62 1003 8 13 0.02 0.51
3:52 pm 15:52 Cloudy with Light Rain 45 7.2 42 5.6 90 90 N 22 35 29.61 1003 9 14 0.02 0.51
4:40 pm 16:40 Cloudy with Light Rain 45 7 43 6 93 93 NNW 20 31 29.65 1004 6 10 0.00 0.00
4:52 pm 16:52 Cloudy with Light Rain 44 6.7 42 5.6 93 93 N 21 33 29.65 1004 6 10 0.03 0.76
5:01 pm 17:01 Cloudy with Rain 44 6.7 42 5.6 93 93 NNW 20 31 29.68 1005 5 8 0.02 0.51
5:11 pm 17:11 Cloudy with Rain 44 6.7 42 5.6 93 93 NNW 17 28 29.68 1005 4 6 0.03 0.76
5:20 pm 17:20 Cloudy with Rain 45 7 41 5 87 87 NNW 18 30 29.65 1004 5 8 0.00 0.00
5:28 pm 17:28 Cloudy with Rain 45 7 41 5 87 87 NNW 18 30 29.65 1004 6 10 0.00 0.00
5:35 pm 17:35 Cloudy with Rain 43 6.1 40 4.4 89 89 NNW 23 37 29.71 1006 7 11 0.07 1.78
5:52 pm 17:52 Cloudy with Rain 43 6.1 41 5 93 93 NNW 18 30 29.67 1005 6 10 0.08 2.03
5:59 pm 17:59 Cloudy with Light Rain 43 6.1 41 5 93 93 NNW 18 30 29.71 1006 6 10 0.00 0.03
6:22 pm 18:22 Cloudy with Light Rain 43 6 39 4 87 87 NNW 22 35 29.71 1006 7 11 0.00 0.00
6:34 pm 18:34 Cloudy with Light Rain 43 6 39 4 87 87 NNW 21 33 29.71 1006 8 13 0.00 0.00
6:42 pm 18:42 Cloudy with Light Rain 43 6 39 4 87 87 NNW 24 39 29.71 1006 9 14 0.00 0.00
6:52 pm 18:52 Cloudy with Light Rain 41 5 39 3.9 93 93 NNW 22 35 29.70 1006 9 14 0.04 1.02
7:52 pm 19:52 Cloudy 37 2.8 35 1.7 93 93 NNW 22 35 29.78 1008 9 14 0.00 0.03
8:52 pm 20:52 Cloudy 36 2.2 34 1.1 93 93 NNW 17 28 29.80 1009 9 14 0.00 0.00
9:52 pm 21:52 Cloudy 37 2.8 34 1.1 89 89 NNW 13 20 29.83 1010 10 16 0.00 0.00
10:52 pm 22:52 Cloudy 37 2.8 35 1.7 93 93 NNW 9 15 29.85 1011 9 14 0.00 0.00
11:52 pm 23:52 Cloudy 37 2.8 35 1.7 93 93 NW 12 19 29.85 1011 9 14 0.00 0.00

Powered by AerisWeather